STARLINK-37569, 69836

Orbit data source: Space-Track

STARLINK-37569, 69836 is a payload satellite owned by SpaceX/Seattle (US) in LEO that was launched on Sun, 05 Jul 2026 UTC via an FALCON 9 launch vehicle from the Air Force Eastern Test Range (AFETR). Payload-class satellites include a variety of spacecraft equipped with specific instruments for various scientific and technological missions. These include communications satellites like Starlink; space stations such as the ISS; scientific satellites like the Hubble; Earth observation satellites from companies like Planet Labs, Umbra, and HawkEye 360; GPS; miniature CubeSats for education and research; and military/defense satellites.

Loading next visibility...
Identifier
69836, 2026-154T
Orbit
LEO
Country
Flag of USUS
Related business
Manufacturer
SpaceX/Seattle
Mission
Operational spacecraft
Bus & Motor
STARLINK V2MO, Unknown motor
Mass
575 kg wet, ~530 kg dry
Launch date (UTC)
2026-07-05 (1 month ago)
Launch vehicle
FALCON 9
Launch site
Air Force Eastern Test Range (AFETR)
Object type
Payload
Rocket body
Debris
Shape & HBR
BOX + PAN, 17.7 m
Radar Cross Section
Large (>1 m²)

Expand to show TLE details & history
Last TLE update: 2 days ago

TLE from 2 days ago
0 STARLINK-37569
1 69836U 26154T   26227.05639779 -.00011592  00000-0 -20083-3 0  9991
2 69836  53.1594 142.0518 0001449 110.8484 249.2681 15.49285621  7648
Epoch: 2026-08-15T01:21Z
TLE epoch observation values (Epoch: 2026-08-15T01:21:12.769Z)
Latitude
0.00005°
Longitude
158.27588°
Altitude
420.07 km
Speed
7.66 km/s
True Right ascension
09h 28m 12s
True Declination
0° 00' 00"
Sunlit
Object was in daylight at epoch
Visualization orbit readout
Latitude
Unknown
Longitude
Unknown
Altitude
Unknown
Speed
Unknown
Apparent Right ascension
Unknown
Apparent Declination
Unknown
Sunlit
N/A
Visualization observer readout
Local Sidereal Time
16:22:16
Azimuth
Unknown
Elevation
Unknown
Doppler factor
Unknown
Orbital elements
Apogee altitude
420.058 km
Perigee altitude
418.088 km
Semi-major axis
6,797.21 km
Eccentricity
0.00014
Inclination
53.1594°
RAAN
142.0518°
Arg. of periapsis
110.8484°
True anomaly
249.25257°
Mean anomaly
249.2681°
Eccentric anomaly
249.26034°
Mean motion
3.873 °/min
Orbital period
92.95 mins
BSTAR
-0.00020083
Loading maneuver chart data...
Computing Atmospheric mass density...
Loading historical data...
Loading historical data...
Loading historical data...
Loading historical data...
Loading historical data...
Loading historical data...
Loading historical data...

Documentation

Showing up to 5 results
|